Mount Sterling, KY

2:29 PM EDT on May 27, 2017 (GMT -0400)
Mount Sterling-Montgomery County

Weather History for KIOB - December, 2013

Change the Weather History Date:

Friday, December 6, 2013

  Actual Average Record
Temperature  
Mean Temperature 32 °F -  
Max Temperature 35 °F 49 °F 55 °F (2014)
Min Temperature 30 °F 30 °F 26 °F (2015)
Degree Days  
Heating Degree Days 32    
Moisture  
Dew Point 32 °F    
Average Humidity 96    
Maximum Humidity 100    
Minimum Humidity 93    
Precipitation  
Precipitation 0.88 in - - ()
Sea Level Pressure  
Sea Level Pressure 30.17 in    
Wind  
Wind Speed 8 mph (NE)    
Max Wind Speed 14 mph    
Max Gust Speed 20 mph    
Visibility 6 miles    
Events Rain , Snow    
Averages and records for this station are not official NWS values.
T = Trace of Precipitation, MM = Missing Value Source: NWS Daily Summary

Daily Weather History Graph

Daily Weather History Graph

Search for Another Location

Airport or City:

Trip Planner

Search our weather history database for the weather conditions in past years. The results will help you decide how hot, cold, wet, or windy it might be!

Date:

Astronomy

Dec. 06, 2013 Rise Set
Actual Time 7:38 AM EST 5:16 PM EST
Civil Twilight 7:08 AM EST 5:45 PM EST
Nautical Twilight 6:35 AM EST 6:18 PM EST
Astronomical Twilight 6:04 AM EST 6:50 PM EST
Moon 10:45 AM EST (12/6) 9:44 PM EST (12/6)
Length of Visible Light 10h 36m
Length of Day
9h 37m
Waxing Crescent, 19% of the Moon is Illuminated
Dec 6
Waxing Crescent
Dec 9
First Quarter
Dec 17
Full
Dec 25
Last Quarter
Jan 1
New

Hourly Weather History & Observations

Time (EST) Temp. Windchill Dew Point Humidity Pressure Visibility Wind Dir Wind Speed Gust Speed Precip Events Conditions
12:15 AM 35.6 °F 28.0 °F 33.8 °F 93% 30.12 in 7.0 mi NE 10.4 mph 17.3 mph N/A Rain Light Rain
12:35 AM 35.6 °F 28.6 °F 33.8 °F 93% 30.11 in 7.0 mi NE 9.2 mph - N/A Rain Rain
12:55 AM 35.6 °F - 33.8 °F 93% 30.13 in 4.0 mi Calm Calm - 0.03 in Rain Rain
1:15 AM 35.6 °F 29.9 °F 33.8 °F 93% 30.11 in 4.0 mi NE 6.9 mph - 0.03 in Rain Light Rain
1:35 AM 35.6 °F 30.7 °F 33.8 °F 93% 30.10 in 4.0 mi NNE 5.8 mph - 0.05 in Rain Light Rain
1:55 AM 35.6 °F 29.9 °F 33.8 °F 93% 30.13 in 4.0 mi North 6.9 mph - 0.08 in Rain Rain
2:15 AM 33.8 °F 29.6 °F 33.8 °F 100% 30.13 in 3.0 mi NE 4.6 mph - 0.05 in Rain Light Rain
2:35 AM 33.8 °F 26.4 °F 33.8 °F 100% 30.11 in 10.0 mi NNE 9.2 mph - 0.05 in   Light Drizzle
2:55 AM 33.8 °F 29.6 °F 33.8 °F 100% 30.15 in 7.0 mi NNW 4.6 mph - 0.06 in Rain Rain
3:15 AM 33.8 °F 29.6 °F 33.8 °F 100% 30.13 in 5.0 mi ENE 4.6 mph - 0.01 in Rain Light Rain
3:35 AM 33.8 °F 28.6 °F 33.8 °F 100% 30.14 in 4.0 mi ENE 5.8 mph - 0.02 in   Drizzle
3:55 AM 33.8 °F 29.6 °F 33.8 °F 100% 30.13 in 4.0 mi NE 4.6 mph - 0.04 in Rain Rain
4:15 AM 33.8 °F 27.0 °F 33.8 °F 100% 30.15 in - NNE 8.1 mph - 0.04 in   Overcast
4:35 AM 33.8 °F 27.0 °F 33.8 °F 100% 30.15 in - North 8.1 mph - 0.07 in   Overcast
4:55 AM 33.8 °F 27.0 °F 33.8 °F 100% 30.13 in - NE 8.1 mph - 0.09 in   Overcast
5:15 AM 33.8 °F 27.7 °F 33.8 °F 100% 30.14 in - NE 6.9 mph - 0.01 in   Overcast
5:35 AM 33.8 °F 26.4 °F 33.8 °F 100% 30.12 in 10.0 mi NE 9.2 mph - 0.01 in   Overcast
5:55 AM 33.8 °F 25.3 °F 33.8 °F 100% 30.12 in 10.0 mi NE 11.5 mph - 0.01 in   Overcast
6:15 AM 33.8 °F 27.0 °F 33.8 °F 100% 30.14 in 10.0 mi NE 8.1 mph - N/A   Overcast
6:35 AM 33.8 °F 27.0 °F 33.8 °F 100% 30.13 in 10.0 mi NE 8.1 mph - N/A   Overcast
6:55 AM 33.8 °F 27.0 °F 33.8 °F 100% 30.14 in 10.0 mi NE 8.1 mph - N/A   Overcast
7:15 AM 33.8 °F 26.4 °F 33.8 °F 100% 30.12 in 7.0 mi NE 9.2 mph - N/A   Overcast
7:35 AM 33.8 °F 24.8 °F 32.0 °F 93% 30.12 in 7.0 mi ENE 12.7 mph 16.1 mph N/A   Overcast
7:55 AM 33.8 °F 26.4 °F 32.0 °F 93% 30.13 in 7.0 mi ENE 9.2 mph - N/A   Overcast
8:15 AM 33.8 °F 27.7 °F 32.0 °F 93% 30.13 in 7.0 mi NE 6.9 mph - N/A   Light Drizzle
8:35 AM 33.8 °F 25.8 °F 32.0 °F 93% 30.15 in 7.0 mi NE 10.4 mph - N/A   Light Drizzle
8:55 AM 33.8 °F 27.0 °F 32.0 °F 93% 30.15 in 7.0 mi ENE 8.1 mph - N/A Rain Light Rain
9:15 AM 33.8 °F 25.8 °F 32.0 °F 93% 30.15 in 7.0 mi NE 10.4 mph - N/A   Light Drizzle
9:35 AM 33.8 °F 26.4 °F 32.0 °F 93% 30.15 in 5.0 mi ENE 9.2 mph 18.4 mph N/A Rain Light Rain
9:55 AM 33.8 °F 27.0 °F 32.0 °F 93% 30.16 in 2.5 mi NE 8.1 mph - 0.02 in Rain Rain
10:15 AM 33.8 °F 25.8 °F 32.0 °F 93% 30.15 in 2.5 mi NE 10.4 mph - 0.04 in Rain Light Rain
10:35 AM 33.8 °F 28.6 °F 32.0 °F 93% 30.17 in 5.0 mi NE 5.8 mph - 0.06 in Rain Rain
10:55 AM 33.8 °F 26.4 °F 32.0 °F 93% 30.16 in 7.0 mi ENE 9.2 mph - 0.06 in   Drizzle
11:15 AM 33.8 °F 28.6 °F 32.0 °F 93% 30.17 in 5.0 mi NE 5.8 mph - 0.01 in Rain Light Rain
11:35 AM 33.8 °F 24.8 °F 32.0 °F 93% 30.14 in 3.0 mi NE 12.7 mph 17.3 mph 0.03 in Rain Rain
11:55 AM 33.8 °F 25.8 °F 32.0 °F 93% 30.13 in 3.0 mi NE 10.4 mph 17.3 mph 0.05 in Rain Light Rain
12:15 PM 33.8 °F 27.0 °F 32.0 °F 93% 30.15 in - NNE 8.1 mph - N/A   Overcast
12:35 PM 33.8 °F 25.3 °F 32.0 °F 93% 30.09 in 2.5 mi ENE 11.5 mph - 0.01 in Rain Heavy Rain
12:55 PM 33.8 °F 25.8 °F 32.0 °F 93% 30.13 in - NNE 10.4 mph - 0.03 in Rain Rain
1:15 PM 33.8 °F 24.3 °F 32.0 °F 93% 30.08 in - NE 13.8 mph 18.4 mph 0.05 in Rain Light Rain
1:35 PM 33.8 °F 27.7 °F 32.0 °F 93% 30.14 in - NNE 6.9 mph - 0.07 in   Overcast
1:55 PM 33.8 °F 25.3 °F 32.0 °F 93% 30.09 in - NE 11.5 mph 19.6 mph 0.09 in   Overcast
2:15 PM 32.0 °F 22.5 °F 32.0 °F 100% 30.09 in 5.0 mi NE 12.7 mph 19.6 mph 0.01 in   Overcast
2:35 PM 32.0 °F 25.6 °F 32.0 °F 100% 30.12 in - NE 6.9 mph - 0.01 in   Overcast
2:55 PM 32.0 °F 23.0 °F 32.0 °F 100% 30.09 in 3.0 mi NE 11.5 mph - 0.04 in Rain Light Rain
3:15 PM 32.0 °F 25.6 °F 32.0 °F 100% 30.15 in 1.8 mi NNE 6.9 mph - 0.04 in   Overcast
3:35 PM 32.0 °F 24.8 °F 32.0 °F 100% 30.14 in 2.0 mi NE 8.1 mph - 0.10 in Rain Rain
3:55 PM 32.0 °F 24.8 °F 32.0 °F 100% 30.16 in 2.5 mi NNE 8.1 mph - 0.15 in   Overcast
4:15 PM 32.0 °F 26.4 °F 32.0 °F 100% 30.15 in 4.0 mi NE 5.8 mph - 0.02 in   Overcast
4:35 PM 32.0 °F 24.2 °F 32.0 °F 100% 30.16 in 4.0 mi NNE 9.2 mph - 0.04 in   Overcast
4:55 PM 32.0 °F 24.8 °F 32.0 °F 100% 30.19 in 4.0 mi NE 8.1 mph - 0.08 in Rain Rain
5:15 PM 32.0 °F 26.4 °F 32.0 °F 100% 30.20 in 5.0 mi NE 5.8 mph - 0.03 in Rain Light Rain
5:35 PM 32.0 °F 23.0 °F 32.0 °F 100% 30.15 in - ENE 11.5 mph - 0.03 in   Overcast
6:15 PM 32.0 °F 27.5 °F 32.0 °F 100% 30.22 in 7.0 mi NNE 4.6 mph - 0.01 in Rain Light Rain
6:55 PM 32.0 °F 24.8 °F 32.0 °F 100% 30.22 in 7.0 mi NNE 8.1 mph - 0.02 in   Overcast
7:15 PM 32.0 °F 23.6 °F 32.0 °F 100% 30.23 in 10.0 mi NNE 10.4 mph - N/A   Overcast
7:35 PM 32.0 °F 24.8 °F 30.2 °F 93% 30.25 in 7.0 mi NNE 8.1 mph - N/A   Overcast
7:55 PM 32.0 °F 24.8 °F 30.2 °F 93% 30.26 in 7.0 mi NE 8.1 mph - N/A   Overcast
8:15 PM 32.0 °F 25.6 °F 30.2 °F 93% 30.25 in 10.0 mi NNE 6.9 mph - N/A   Overcast
8:35 PM 30.2 °F 23.4 °F 30.2 °F 100% 30.25 in 7.0 mi NE 6.9 mph - N/A   Overcast
8:55 PM 30.2 °F 22.6 °F 30.2 °F 100% 30.24 in 7.0 mi ENE 8.1 mph - N/A   Overcast
9:15 PM 30.2 °F 21.9 °F 30.2 °F 100% 30.25 in 7.0 mi NE 9.2 mph - N/A Snow Light Snow
9:35 PM 30.2 °F 23.4 °F 30.2 °F 100% 30.25 in 10.0 mi NNE 6.9 mph - N/A   Overcast
9:55 PM 30.2 °F 21.3 °F 30.2 °F 100% 30.30 in 10.0 mi NNE 10.4 mph 16.1 mph N/A   Overcast
10:15 PM 30.2 °F 20.8 °F 28.4 °F 93% 30.30 in 10.0 mi NNE 11.5 mph - N/A   Overcast
10:35 PM 30.2 °F 23.4 °F 28.4 °F 93% 30.32 in 7.0 mi NNE 6.9 mph 16.1 mph N/A Snow Light Snow
10:55 PM 30.2 °F 23.4 °F 28.4 °F 93% 30.33 in 10.0 mi NE 6.9 mph - N/A   Overcast
11:15 PM 30.2 °F 24.3 °F 28.4 °F 93% 30.33 in 10.0 mi NE 5.8 mph - N/A   Overcast
11:35 PM 30.2 °F 23.4 °F 28.4 °F 93% 30.33 in 10.0 mi NE 6.9 mph - N/A   Overcast
11:55 PM 30.2 °F 24.3 °F 28.4 °F 93% 30.34 in 10.0 mi NE 5.8 mph - N/A   Overcast